{"data":{"norad_id":68961,"intl_designator":"2026-099L","name":"STARLINK-36965","alt_names":[],"object_type":"PAYLOAD","status":"ACTIVE","operator":null,"country":"US","launch_date":"2026-05-01","launch_site_code":"AFETR","launch_vehicle":null,"mission":null,"orbit_class":"UNKNOWN","rcs_meters":null,"size_class":null,"mass_kg":null,"dimensions":null,"purposes":["comms"],"wikipedia_slug":null,"has_3d_model":false,"image_url":null,"decayed_at":null,"tle_current":{"epoch":"2026-09-20T02:34:48.496800Z","epoch_age_seconds":53349,"freshness":"FRESH","line1":"1 68961U 26099L   26263.10750575  .00018323  00000+0  55229-3 0  9997","line2":"2 68961  53.1580  77.6760 0001727  49.7167 310.3987 15.34389185 21841","mean_motion":15.34389185,"eccentricity":0.0001727,"inclination_deg":53.158,"raan_deg":77.676,"arg_perigee_deg":49.7167,"mean_anomaly_deg":310.3987,"bstar":0.00055229,"rev_number":2184,"period_min":93.848419558562,"perigee_km":461.5539661942,"apogee_km":463.91680351593,"semimajor_km":6840.8723848551,"source":"CELESTRAK","updated_at":"2026-09-20T09:00:44.053432Z"}}}